FW2321 Weather Reports


Display with metric or nautical units.
time (UTC)temp
F
wind
direction
speed
MPH
gust
MPH
rain 1hr
in
rain 24hr
in
rain mn
in
humidity
%
barometer
mb
20260902203535 88 296 0.0 4.0 0.00 0.01 0.01 78 1012.2
20260902203051 88 306 1.0 4.0 0.00 0.01 0.01 79 1012.2
20260902202538 88 276 0.0 4.0 0.00 0.01 0.01 77 1012.2
20260902202035 88 219 1.0 5.0 0.00 0.01 0.01 76 1012.1
20260902201605 88 221 0.0 7.0 0.00 0.01 0.01 75 1012.4
20260902201037 88 202 1.0 8.0 0.00 0.01 0.01 75 1012.3
20260902200538 88 0 3.0 8.0 0.00 0.01 0.01 77 1012.3
20260902200107 88 199 2.0 6.0 0.00 0.01 0.01 78 1012.4
20260902195535 88 173 1.0 6.0 0.00 0.02 0.01 81 1012.4
20260902195038 87 0 0.0 6.0 0.00 0.02 0.01 79 1012.5
20260902194554 87 250 1.0 6.0 0.00 0.02 0.01 78 1012.5
20260902194034 87 184 2.0 8.0 0.00 0.02 0.01 78 1012.4
20260902193539 87 189 3.0 8.0 0.00 0.02 0.01 76 1012.4
20260902193054 88 217 1.0 7.0 0.00 0.02 0.01 76 1012.5
20260902192537 88 191 1.0 7.0 0.00 0.02 0.01 74 1012.4
20260902192037 88 0 1.0 9.0 0.00 0.02 0.01 76 1012.8
20260902191557 88 207 2.0 9.0 0.00 0.02 0.01 75 1012.8
20260902191035 88 189 3.0 8.0 0.00 0.02 0.01 74 1012.7
20260902190534 88 284 3.0 8.0 0.00 0.02 0.01 76 1012.7
20260902190057 88 250 3.0 9.0 0.00 0.02 0.01 77 1012.8
20260902185537 88 212 1.0 9.0 0.00 0.02 0.01 77 1012.7
20260902185037 88 236 2.0 6.0 0.00 0.02 0.01 76 1012.8
20260902184556 88 196 2.0 6.0 0.00 0.02 0.01 77 1012.8
20260902184036 88 266 1.0 6.0 0.00 0.02 0.01 79 1012.8
20260902183534 87 210 1.0 8.0 0.00 0.02 0.01 79 1012.8
20260902183052 87 0 3.0 8.0 0.00 0.02 0.01 79 1013.0
20260902182534 87 212 2.0 8.0 0.00 0.02 0.01 78 1012.9
20260902182036 87 222 2.0 7.0 0.00 0.02 0.01 79 1013.0
20260902181557 87 291 2.0 7.0 0.00 0.02 0.01 79 1013.0
20260902181036 86 261 1.0 7.0 0.00 0.02 0.01 80 1013.1
20260902180535 86 213 3.0 7.0 0.00 0.02 0.01 79 1013.1
20260902180055 86 206 0.0 7.0 0.00 0.02 0.01 80 1013.0
20260902175537 86 0 2.0 7.0 0.00 0.02 0.01 79 1013.1
20260902175040 86 0 1.0 7.0 0.00 0.02 0.01 80 1013.2
20260902174608 86 200 1.0 7.0 0.00 0.02 0.01 80 1013.4
20260902174037 86 200 2.0 7.0 0.00 0.02 0.01 79 1013.4
20260902173537 86 224 1.0 7.0 0.00 0.02 0.01 80 1013.3
20260902173057 86 186 1.0 6.0 0.00 0.02 0.01 79 1013.3
20260902172536 86 269 2.0 6.0 0.00 0.02 0.01 79 1013.4
20260902172037 86 0 2.0 5.0 0.00 0.02 0.01 81 1013.3
20260902171607 85 213 2.0 8.0 0.00 0.02 0.01 81 1013.3
20260902171036 85 275 2.0 8.0 0.00 0.02 0.01 82 1013.2
20260902170536 85 0 1.0 7.0 0.00 0.02 0.01 83 1013.5
20260902170053 84 219 2.0 7.0 0.00 0.02 0.01 83 1013.4
20260902165534 84 204 1.0 6.0 0.00 0.02 0.01 83 1013.4
20260902165034 84 229 1.0 4.0 0.00 0.02 0.01 85 1013.3
20260902164600 84 236 0.0 4.0 0.00 0.02 0.01 85 1013.4
20260902164038 84 0 1.0 4.0 0.01 0.02 0.01 86 1013.5
20260902163535 84 0 1.0 4.0 0.01 0.02 0.01 85 1013.6
20260902163055 83 185 1.0 4.0 0.01 0.02 0.01 86 1013.5
20260902162534 83 184 0.0 5.0 0.01 0.02 0.01 88 1013.6
20260902162036 83 184 2.0 5.0 0.01 0.02 0.01 87 1013.6
20260902161554 83 168 2.0 7.0 0.01 0.02 0.01 86 1013.4
20260902161037 83 0 2.0 7.0 0.01 0.02 0.01 86 1013.5
20260902160536 83 227 3.0 7.0 0.01 0.02 0.01 85 1013.3
20260902160115 83 108 0.0 8.0 0.01 0.02 0.01 86 1013.2
20260902155535 83 66 1.0 8.0 0.01 0.03 0.01 86 1013.2
20260902155037 83 115 2.0 8.0 0.01 0.03 0.01 86 1013.1
20260902154559 82 101 1.0 7.0 0.01 0.03 0.01 86 1013.3
20260902154037 82 94 1.0 6.0 0.00 0.02 0.00 88 1013.4
20260902153536 82 184 1.0 6.0 0.00 0.02 0.00 88 1013.4
20260902153056 81 142 0.0 3.0 0.00 0.02 0.00 89 1013.5
20260902152535 81 0 0.0 8.0 0.00 0.02 0.00 88 1013.4
20260902152034 80 0 1.0 8.0 0.00 0.02 0.00 86 1013.4
20260902151556 81 175 1.0 7.0 0.00 0.02 0.00 87 1013.5
20260902151038 81 171 3.0 6.0 0.00 0.02 0.00 86 1013.6
20260902150535 80 109 1.0 6.0 0.00 0.02 0.00 88 1013.5
20260902150052 80 0 1.0 8.0 0.00 0.02 0.00 88 1013.5
20260902145537 79 0 0.0 9.0 0.00 0.02 0.00 90 1013.7
20260902145035 79 112 2.0 9.0 0.00 0.02 0.00 89 1013.6
20260902144555 79 173 2.0 7.0 0.00 0.02 0.00 89 1013.8
20260902144034 79 0 0.0 6.0 0.00 0.02 0.00 90 1013.9
20260902143535 78 175 0.0 6.0 0.00 0.02 0.00 91 1013.9
20260902143054 78 104 1.0 6.0 0.00 0.02 0.00 91 1013.9
20260902142535 77 130 0.0 4.0 0.00 0.02 0.00 93 1013.8
20260902142035 77 155 0.0 4.0 0.00 0.02 0.00 95 1013.9
20260902141555 76 154 0.0 3.0 0.00 0.02 0.00 94 1014.1
20260902141035 75 0 0.0 3.0 0.00 0.02 0.00 94 1014.1
20260902140536 75 0 0.0 3.0 0.00 0.02 0.00 96 1014.2
20260902135534 75 0 0.0 0.0 0.00 0.02 0.00 97 1014.4
20260902135034 75 0 0.0 0.0 0.00 0.02 0.00 97 1014.6
20260902134556 74 0 0.0 0.0 0.00 0.02 0.00 98 1014.5
20260902134035 74 0 0.0 1.0 0.00 0.02 0.00 99 1014.5
20260902133535 74 0 0.0 4.0 0.00 0.02 0.00 99 1014.3
20260902133103 74 0 1.0 4.0 0.00 0.02 0.00 100 1014.3
20260902132535 74 109 0.0 2.0 0.00 0.02 0.00 100 1014.3
20260902132034 74 0 0.0 4.0 0.00 0.02 0.00 100 1014.5
20260902131553 74 0 0.0 4.0 0.00 0.02 0.00 100 1014.7
20260902131034 73 141 0.0 3.0 0.00 0.02 0.00 100 1014.6
20260902130534 73 202 0.0 3.0 0.00 0.02 0.00 100 1014.6
20260902130047 73 0 0.0 0.0 0.00 0.02 0.00 100 1015.0
20260902125536 73 0 0.0 0.0 0.00 0.02 0.00 100 1015.0
20260902125034 72 0 0.0 0.0 0.00 0.02 0.00 100 1014.7
20260902124556 72 0 0.0 0.0 0.00 0.02 0.00 100 1014.7
20260902124034 72 0 0.0 0.0 0.00 0.02 0.00 100 1014.9
20260902123536 72 0 0.0 2.0 0.00 0.02 0.00 100 1014.9
20260902123104 71 0 0.0 2.0 0.00 0.02 0.00 100 1015.0
20260902122535 71 275 0.0 3.0 0.00 0.02 0.00 100 1014.9
20260902122035 71 0 0.0 3.0 0.00 0.02 0.00 100 1015.1
20260902121551 71 287 1.0 3.0 0.00 0.02 0.00 100 1014.8
20260902121035 71 339 0.0 3.0 0.00 0.02 0.00 100 1014.9
20260902120535 71 339 0.0 3.0 0.00 0.02 0.00 100 1014.6
20260902120049 71 339 0.0 3.0 0.00 0.02 0.00 100 1015.0
20260902115537 71 0 0.0 0.0 0.00 0.02 0.00 100 1014.5
20260902115035 70 0 0.0 0.0 0.00 0.02 0.00 100 1014.4
20260902114606 70 0 0.0 0.0 0.00 0.02 0.00 100 1014.3
20260902114037 70 0 0.0 0.0 0.00 0.02 0.00 100 1014.3
20260902113535 70 0 0.0 1.0 0.00 0.02 0.00 100 1014.2
20260902113053 70 0 0.0 5.0 0.00 0.02 0.00 100 1014.2
20260902112534 70 0 2.0 5.0 0.00 0.02 0.00 100 1014.3
20260902112034 70 0 0.0 0.0 0.00 0.02 0.00 100 1013.7
20260902111552 70 0 0.0 0.0 0.00 0.02 0.00 100 1013.5
20260902111034 70 0 0.0 0.0 0.00 0.02 0.00 100 1013.5
20260902110534 70 0 0.0 0.0 0.00 0.02 0.00 100 1013.6
20260902110106 70 0 0.0 0.0 0.00 0.02 0.00 100 1013.6
20260902105535 70 0 0.0 0.0 0.00 0.02 0.00 100 1013.5
20260902105035 70 0 0.0 0.0 0.00 0.02 0.00 100 1013.5
20260902104604 70 0 0.0 0.0 0.00 0.02 0.00 100 1013.7
20260902104035 70 0 0.0 0.0 0.00 0.02 0.00 100 1013.8
20260902103535 71 0 0.0 0.0 0.00 0.02 0.00 100 1013.8
20260902103052 71 0 0.0 0.0 0.00 0.02 0.00 100 1013.7
20260902102537 71 0 0.0 0.0 0.00 0.02 0.00 100 1013.6
20260902102035 71 0 0.0 0.0 0.00 0.02 0.00 100 1013.8
20260902101557 71 0 0.0 0.0 0.00 0.02 0.00 100 1013.7
20260902101034 71 0 0.0 0.0 0.00 0.02 0.00 100 1013.8
20260902100541 71 0 0.0 6.0 0.00 0.02 0.00 100 1013.9
20260902100055 71 0 0.0 6.0 0.00 0.02 0.00 100 1013.8
20260902095537 71 13 2.0 5.0 0.00 0.02 0.00 100 1013.9
20260902095034 71 219 1.0 9.0 0.00 0.02 0.00 100 1013.7
20260902094555 71 355 4.0 9.0 0.00 0.02 0.00 100 1014.1
20260902094034 70 0 0.0 0.0 0.00 0.02 0.00 100 1013.7
20260902093536 70 0 0.0 0.0 0.00 0.02 0.00 100 1013.6
20260902093059 70 0 0.0 0.0 0.00 0.02 0.00 100 1013.7
20260902092534 71 0 0.0 0.0 0.00 0.02 0.00 100 1013.7
20260902092036 71 0 0.0 0.0 0.00 0.02 0.00 100 1013.6
20260902091559 71 0 0.0 0.0 0.00 0.02 0.00 100 1013.6
20260902091034 71 0 0.0 0.0 0.00 0.02 0.00 100 1013.5
20260902090534 71 0 0.0 0.0 0.00 0.02 0.00 100 1013.6
20260902090055 71 0 0.0 0.0 0.00 0.02 0.00 100 1013.5
20260902085534 71 0 0.0 0.0 0.00 0.02 0.00 100 1013.6
20260902085036 71 0 0.0 0.0 0.00 0.02 0.00 100 1013.6
20260902084557 71 0 0.0 0.0 0.00 0.02 0.00 100 1013.6
20260902084034 71 0 0.0 0.0 0.00 0.02 0.00 100 1013.7
20260902083533 71 0 0.0 0.0 0.00 0.02 0.00 100 1013.6
20260902083108 71 0 0.0 0.0 0.00 0.02 0.00 100 1013.6
20260902082534 71 0 0.0 0.0 0.00 0.02 0.00 100 1013.6
20260902082033 71 0 0.0 0.0 0.00 0.02 0.00 100 1013.6
20260902081557 71 0 0.0 0.0 0.00 0.02 0.00 100 1013.4
20260902081035 71 0 0.0 0.0 0.00 0.02 0.00 100 1013.3
20260902080535 71 0 0.0 0.0 0.00 0.02 0.00 100 1013.4
20260902080108 71 0 0.0 0.0 0.00 0.02 0.00 100 1013.2
20260902075537 72 0 0.0 0.0 0.00 0.02 0.00 100 1013.2
20260902075037 72 0 0.0 0.0 0.00 0.02 0.00 100 1013.3
20260902074559 72 0 0.0 0.0 0.00 0.02 0.00 100 1013.3
20260902074035 72 0 0.0 0.0 0.00 0.02 0.00 100 1013.4
20260902073535 72 0 0.0 0.0 0.00 0.02 0.00 100 1013.3
20260902073049 73 0 0.0 0.0 0.00 0.02 0.00 100 1013.2
20260902072535 73 0 0.0 0.0 0.00 0.02 0.00 100 1013.3
20260902072037 73 0 0.0 0.0 0.00 0.02 0.00 100 1013.3
20260902071554 73 0 0.0 0.0 0.00 0.02 0.00 100 1013.3
20260902071037 73 0 0.0 0.0 0.00 0.02 0.00 100 1013.3
20260902070535 73 0 0.0 0.0 0.00 0.02 0.00 100 1013.3
20260902070100 73 0 0.0 0.0 0.00 0.02 0.00 100 1013.4
20260902065540 73 0 0.0 0.0 0.00 0.02 0.00 100 1013.5
20260902065035 73 0 0.0 0.0 0.00 0.02 0.00 100 1013.4
20260902064555 73 0 0.0 0.0 0.00 0.02 0.00 100 1013.5
20260902064033 73 0 0.0 0.0 0.00 0.02 0.00 100 1013.5
20260902063535 74 0 0.0 0.0 0.00 0.02 0.00 100 1013.5
20260902063058 74 0 0.0 0.0 0.00 0.02 0.00 100 1013.5
20260902062537 74 0 0.0 0.0 0.00 0.02 0.00 100 1013.5
20260902062034 74 0 0.0 0.0 0.00 0.02 0.00 100 1013.6
20260902061611 74 0 0.0 0.0 0.00 0.02 0.00 100 1013.5
20260902061035 74 0 0.0 0.0 0.00 0.02 0.00 100 1013.6
20260902060534 74 0 0.0 0.0 0.00 0.02 0.00 100 1013.7
20260902060057 74 0 0.0 0.0 0.00 0.02 0.00 100 1013.7
20260902055535 74 0 0.0 0.0 0.00 0.02 0.00 100 1013.7
20260902055036 74 0 0.0 0.0 0.00 0.02 0.00 100 1013.6
20260902054554 74 0 0.0 0.0 0.00 0.02 0.00 100 1013.6
20260902054036 74 0 0.0 0.0 0.00 0.02 0.00 100 1013.6
20260902053536 74 0 0.0 0.0 0.00 0.02 0.00 100 1013.4
20260902053052 74 0 0.0 0.0 0.00 0.02 0.00 100 1013.4
20260902052534 74 0 0.0 0.0 0.00 0.02 0.00 100 1013.3
20260902052035 74 0 0.0 0.0 0.00 0.02 0.00 100 1013.4
20260902051557 74 0 0.0 0.0 0.00 0.02 0.00 100 1013.3
20260902051035 75 0 0.0 0.0 0.00 0.02 0.00 100 1013.3
20260902050537 75 0 0.0 0.0 0.00 0.02 0.00 100 1013.2
20260902050055 75 0 0.0 0.0 0.00 0.02 0.00 100 1013.1
20260902045533 75 0 0.0 0.0 0.00 0.02 0.02 100 1013.0
20260902045034 75 0 0.0 0.0 0.00 0.02 0.02 100 1013.1
20260902044556 75 0 0.0 0.0 0.00 0.02 0.02 100 1013.2
20260902044038 75 0 0.0 0.0 0.00 0.02 0.02 100 1013.3
20260902043534 75 0 0.0 0.0 0.00 0.02 0.02 100 1013.4
20260902043108 75 0 0.0 0.0 0.00 0.02 0.02 100 1013.3
20260902042537 76 0 0.0 0.0 0.00 0.02 0.02 100 1013.4
20260902042034 76 0 0.0 0.0 0.00 0.02 0.02 100 1013.3
20260902041558 76 0 0.0 0.0 0.00 0.02 0.02 100 1013.3
20260902041034 76 0 0.0 3.0 0.00 0.02 0.02 100 1013.2
20260902040537 76 0 0.0 4.0 0.00 0.02 0.02 100 1013.3
20260902040056 76 180 1.0 4.0 0.00 0.02 0.02 100 1013.1
20260902035538 76 180 2.0 4.0 0.00 0.02 0.02 100 1013.0
20260902035035 76 180 1.0 4.0 0.00 0.02 0.02 100 1013.2
20260902034553 76 0 0.0 3.0 0.00 0.02 0.02 100 1013.3
20260902034038 75 180 1.0 3.0 0.00 0.02 0.02 100 1013.2
20260902033534 75 180 1.0 3.0 0.00 0.02 0.02 100 1013.3
20260902033103 75 180 0.0 0.0 0.00 0.02 0.02 100 1013.3
20260902032535 76 0 0.0 0.0 0.00 0.02 0.02 100 1013.4
20260902032036 75 0 0.0 0.0 0.00 0.02 0.02 100 1013.5
20260902031558 75 0 0.0 0.0 0.00 0.02 0.02 100 1013.5
20260902031037 76 0 0.0 0.0 0.00 0.02 0.02 100 1013.5
20260902030540 76 0 0.0 0.0 0.00 0.02 0.02 99 1013.6
20260902030103 76 0 0.0 0.0 0.00 0.02 0.02 99 1013.5
20260902025535 76 0 0.0 0.0 0.00 0.02 0.02 99 1013.4
20260902025035 76 0 0.0 0.0 0.00 0.02 0.02 100 1013.4
20260902024603 76 0 0.0 0.0 0.00 0.02 0.02 100 1013.5
20260902024035 76 0 0.0 0.0 0.00 0.02 0.02 99 1013.5
20260902023534 76 0 0.0 0.0 0.00 0.02 0.02 99 1013.6
20260902023102 76 0 0.0 0.0 0.00 0.02 0.02 99 1013.6
20260902022535 76 0 0.0 0.0 0.00 0.02 0.02 99 1013.5
20260902022035 76 0 0.0 0.0 0.00 0.02 0.02 99 1013.7
20260902021606 76 0 0.0 0.0 0.00 0.02 0.02 99 1013.8
20260902021036 76 0 0.0 0.0 0.00 0.02 0.02 99 1013.8
20260902020538 77 0 0.0 0.0 0.00 0.02 0.02 98 1013.9
20260902020058 77 0 0.0 0.0 0.00 0.02 0.02 98 1013.8
20260902015538 77 0 0.0 0.0 0.00 0.02 0.02 98 1013.7
20260902015038 77 0 0.0 0.0 0.00 0.02 0.02 98 1013.7
20260902014550 77 0 0.0 0.0 0.00 0.02 0.02 98 1013.6
20260902014038 77 0 0.0 0.0 0.00 0.02 0.02 98 1013.5
20260902013538 77 0 0.0 0.0 0.00 0.02 0.02 98 1013.3
20260902013100 78 0 0.0 0.0 0.00 0.02 0.02 98 1013.2
20260902012538 78 0 0.0 0.0 0.00 0.02 0.02 97 1013.2
20260902012038 78 0 0.0 0.0 0.00 0.02 0.02 97 1013.2
20260902011555 78 0 0.0 0.0 0.00 0.02 0.02 97 1013.3
20260902011036 78 0 0.0 0.0 0.00 0.02 0.02 97 1013.2
20260902010539 78 0 0.0 0.0 0.00 0.02 0.02 97 1013.2
20260902010052 79 0 0.0 0.0 0.00 0.02 0.02 97 1013.0
20260902005537 79 0 0.0 0.0 0.00 0.02 0.02 96 1013.0
20260902005037 79 0 0.0 0.0 0.00 0.02 0.02 96 1013.0
20260902004601 79 0 0.0 0.0 0.00 0.02 0.02 95 1012.8
20260902004036 80 0 0.0 0.0 0.00 0.02 0.02 95 1013.0
20260902003538 80 0 0.0 0.0 0.00 0.02 0.02 95 1012.9
20260902003101 80 0 0.0 0.0 0.00 0.02 0.02 95 1012.8
20260902002536 80 0 0.0 2.0 0.00 0.02 0.02 95 1012.8
20260902002039 80 0 0.0 2.0 0.00 0.02 0.02 94 1013.0
20260902001556 81 0 0.0 1.0 0.00 0.02 0.02 95 1012.8
20260902001035 81 0 0.0 0.0 0.00 0.02 0.02 94 1012.8
20260902000535 81 0 0.0 0.0 0.00 0.02 0.02 94 1012.7
20260902000056 81 0 0.0 1.0 0.00 0.02 0.02 94 1012.7
20260901235536 81 0 0.0 1.0 0.00 0.02 0.02 94 1012.8
20260901235036 81 0 0.0 1.0 0.00 0.02 0.02 93 1012.8
20260901234609 82 180 0.0 1.0 0.00 0.02 0.02 92 1012.7
20260901234037 81 0 0.0 2.0 0.00 0.02 0.02 92 1013.0
20260901233538 82 0 0.0 2.0 0.00 0.02 0.02 92 1012.8
20260901233109 82 180 1.0 2.0 0.00 0.02 0.02 91 1012.8
20260901232536 82 0 0.0 3.0 0.00 0.02 0.02 91 1012.7
20260901232038 82 0 0.0 4.0 0.00 0.02 0.02 91 1012.5
20260901231600 82 180 1.0 5.0 0.00 0.02 0.02 91 1012.5
20260901231032 82 180 2.0 5.0 0.00 0.02 0.02 90 1012.1
20260901230536 82 168 3.0 5.0 0.00 0.02 0.02 89 1012.2
20260901230057 82 250 1.0 2.0 0.00 0.02 0.02 90 1012.5
20260901225535 82 344 0.0 3.0 0.00 0.02 0.02 88 1012.8
20260901225033 82 0 0.0 3.0 0.00 0.02 0.02 88 1012.9
20260901224556 82 345 1.0 3.0 0.00 0.02 0.02 89 1013.1
20260901224033 82 348 0.0 2.0 0.00 0.02 0.02 89 1013.1
20260901223536 82 0 0.0 2.0 0.00 0.02 0.02 90 1013.1
20260901223057 81 0 0.0 3.0 0.00 0.02 0.02 91 1013.1
20260901222536 81 0 1.0 3.0 0.00 0.02 0.02 90 1013.2
20260901222035 82 0 1.0 3.0 0.00 0.02 0.02 90 1013.4
20260901221618 82 300 0.0 3.0 0.00 0.02 0.02 89 1013.2
20260901221036 82 299 0.0 3.0 0.00 0.02 0.02 88 1013.3
20260901220532 82 299 0.0 3.0 0.00 0.02 0.02 87 1013.3
20260901220105 82 0 0.0 3.0 0.00 0.02 0.02 88 1013.3
20260901215535 82 298 0.0 3.0 0.00 0.02 0.02 88 1013.3
20260901215036 82 0 0.0 3.0 0.00 0.02 0.02 87 1013.2
20260901214549 82 0 0.0 6.0 0.00 0.02 0.02 87 1013.1
20260901214035 82 0 1.0 6.0 0.00 0.02 0.02 87 1013.2
20260901213536 82 336 2.0 6.0 0.00 0.02 0.02 87 1013.3
20260901213114 82 343 1.0 4.0 0.00 0.02 0.02 87 1013.2
20260901212536 82 317 2.0 4.0 0.00 0.02 0.02 87 1013.2
20260901212037 82 263 1.0 4.0 0.00 0.02 0.02 87 1013.3
20260901211554 82 0 1.0 4.0 0.00 0.02 0.02 87 1013.3
20260901211033 82 0 1.0 4.0 0.00 0.02 0.02 87 1013.5
20260901210535 82 281 1.0 7.0 0.00 0.02 0.02 86 1013.5
20260901210052 82 335 2.0 7.0 0.00 0.02 0.02 85 1013.5
20260901205540 82 312 1.0 5.0 0.00 0.02 0.02 87 1013.5
20260901205035 82 316 0.0 3.0 0.00 0.02 0.02 88 1013.4
20260901204556 82 306 1.0 6.0 0.00 0.02 0.02 88 1013.3
20260901204037 82 317 0.0 6.0 0.00 0.02 0.02 90 1013.4